Flag for Belgium Weather past 2 weeks in Liège, Belgium

Now
64 °F

Passing clouds.


Feels Like: 64 °F
Forecast: 53 / 66 °F
Wind: 9 mph from West

Location: Bierset

Current Time: Sep 1, 2015 at 2:33:41 AM

Latest Report: Sep 1, 2015 at 1:50 AM


Visibility: N/A

Pressure: 29.89 "Hg

Humidity: 88%

Dew point: 61 °F

Location of LiègeLocation

Historic Weather in Liège — Graph

°F

Liège temperature yesterday

Maximum temperature yesterday: 86 °F (at 3:20 PM)
Minimum temperature yesterday: 66 °F (at 6:50 AM)
Average temperature yesterday: 74 °F

Past Weeks' High & Low Weather Summary

 TemperatureHumidityPressure
High88 °F (Aug 30, 3:50 PM)100% (Aug 24, 1:50 AM)30.24 "Hg (Aug 24, 1:50 AM)
Low52 °F (Aug 19, 6:20 AM)30% (Aug 22, 3:20 PM)29.53 "Hg (Aug 24, 12:50 PM)
Average65 °F70%29.98 "Hg
* Reported Aug 17 1:20 AM — Sep 1 1:20 AM, Liège, Weather by CustomWeather, © 2015

Note: Actual official high and low records may vary slightly from our data, if they occured in-between our weather recording intervals... More about our weather records

Advertising

Liège weather history for previous 24 hours

 ConditionsComfort  
Time TempWeatherWind HumidityBarometerVisibility
1:20 AM
Tue, Sep 1
64 °FPassing clouds.8 mph88%29.86 "HgN/A
12:50 AM64 °FPassing clouds.9 mph88%29.89 "HgN/A
11:50 PM
Mon, Aug 31
68 °FPartly cloudy.7 mph88%29.86 "Hg6 mi
11:20 PM68 °FPassing clouds.8 mph88%29.86 "HgN/A
10:50 PM68 °FPartly cloudy.10 mph88%29.86 "HgN/A
10:20 PM68 °FPassing clouds.9 mph88%29.86 "HgN/A
9:50 PM68 °FPassing clouds.8 mph88%29.86 "HgN/A
9:20 PM68 °FSunny.9 mph88%29.86 "Hg10 mi
8:50 PM68 °FSunny.8 mph88%29.86 "Hg10 mi
8:20 PM68 °FSunny.8 mph88%29.86 "Hg10 mi
7:50 PM68 °FScattered clouds.6 mph94%29.86 "HgN/A
7:20 PM68 °FSunny.5 mph94%29.86 "Hg10 mi
6:50 PM68 °FSprinkles. Clear.8 mph88%29.86 "HgN/A
6:20 PM72 °FPassing clouds.13 mph69%29.83 "HgN/A
5:50 PM73 °FSunny.10 mph65%29.83 "Hg10 mi
5:20 PM82 °FSunny.15 mph51%29.80 "Hg10 mi
4:50 PM82 °FSunny.14 mph48%29.80 "Hg10 mi
4:20 PM84 °FSunny.16 mph45%29.80 "Hg10 mi
3:50 PM86 °FSunny.20 mph43%29.80 "Hg10 mi
3:20 PM86 °FSunny.20 mph46%29.80 "Hg10 mi
2:50 PM84 °FSunny.16 mph43%29.80 "Hg10 mi
2:20 PM84 °FPassing clouds.15 mph43%29.80 "HgN/A
1:50 PM84 °FSunny.20 mph43%29.83 "Hg10 mi
1:20 PM82 °FSunny.16 mph45%29.83 "Hg10 mi
12:50 PM81 °FSunny.15 mph45%29.83 "Hg10 mi
12:20 PM81 °FSunny.17 mph45%29.83 "Hg10 mi
11:50 AM79 °FSunny.18 mph51%29.83 "Hg10 mi
11:20 AM77 °FSunny.15 mph51%29.86 "Hg10 mi
10:50 AM75 °FSunny.15 mph50%29.86 "Hg10 mi
10:20 AM75 °FSunny.14 mph50%29.86 "Hg10 mi
9:50 AM75 °FSunny.13 mph50%29.86 "Hg10 mi
9:20 AM73 °FSunny.9 mph57%29.89 "Hg10 mi
8:50 AM72 °FSunny.7 mph61%29.86 "Hg10 mi
8:20 AM70 °FSunny.9 mph69%29.86 "Hg10 mi
7:50 AM70 °FSunny.10 mph73%29.89 "Hg10 mi
7:20 AM68 °FClear.10 mph88%29.86 "Hg10 mi
6:50 AM66 °FClear.9 mph94%29.89 "Hg10 mi
6:20 AM68 °FClear.8 mph88%29.89 "Hg5 mi
5:50 AM68 °FClear.7 mph88%29.89 "Hg4 mi
5:20 AM68 °FFog.5 mph94%29.92 "Hg3 mi
4:50 AM68 °FPassing clouds.3 mph88%29.92 "HgN/A
4:20 AM70 °FPassing clouds.5 mph88%29.92 "HgN/A
3:50 AM72 °FPassing clouds.6 mph83%29.92 "HgN/A
3:20 AM72 °FPassing clouds.6 mph88%29.95 "HgN/A
2:50 AM72 °FClear.9 mph88%29.95 "Hg10 mi
2:20 AM73 °FClear.10 mph83%29.95 "Hg10 mi
Weather by CustomWeather, © 2015

See weather overviewHow to use our weather pages